FENGYUN 1C DEB, 30619

Orbit data source: Space-Track

FENGYUN 1C DEB, 30619 is space debris in SSO originally from a launch on Mon, 10 May 1999 UTC launched from the Taiyaun Space Center, China (TSC). Fengyun 1C debris stems from the Chinese weather satellite Fengyun-1C, which was intentionally destroyed by a Chinese anti-satellite missile in 2007. This event dramatically increased the amount of space debris, with thousands of trackable fragments posing hazards to satellites and human spaceflight. The Fengyun 1C debris cloud has become a focal point in discussions about space sustainability and the need for international regulations to prevent the creation of new debris.

Loading next visibility...
Identifier
30619, 1999-025ANA
Orbit
SSO
Country
Flag of CNCN / PRC
Related business
Manufacturer
Unknown
Mission
Spacecraft
Bus & Motor
Unknown
Mass
Unknown
Launch date (UTC)
1999-05-10 (27 years ago)
Launch vehicle
Unknown
Launch site
Taiyaun Space Center, China (TSC)
Object type
Payload
Rocket body
Debris
Shape & HBR
Unknown shape, 0.1 m
Radar Cross Section
Medium (>0.1 m² and <1 m²)

Expand to show TLE details & history
Last TLE update: 14 hours ago

TLE from 14 hours ago
0 FENGYUN 1C DEB
1 30619U 99025ANA 26238.28906492  .00001117  00000-0  27314-3 0  9995
2 30619  98.2782 258.7328 0213270   3.2485 357.0033 14.41707200 26341
Epoch: 2026-08-26T06:56Z
TLE epoch observation values (Epoch: 2026-08-26T06:56:15.209Z)
Latitude
0.00002°
Longitude
-179.87478°
Altitude
603.926 km
Speed
7.638 km/s
True Right ascension
17h 14m 55s
True Declination
0° 00' 00"
Sunlit
Object was in daylight at epoch
Visualization orbit readout
Latitude
Unknown
Longitude
Unknown
Altitude
Unknown
Speed
Unknown
Apparent Right ascension
Unknown
Apparent Declination
Unknown
Sunlit
N/A
Visualization observer readout
Local Sidereal Time
12:03:15
Azimuth
Unknown
Elevation
Unknown
Doppler factor
Unknown
Orbital elements
Apogee altitude
901.992 km
Perigee altitude
597.95 km
Semi-major axis
7,128.108 km
Eccentricity
0.02133
Inclination
98.2782°
RAAN
258.7328°
Arg. of periapsis
3.2485°
True anomaly
356.87205°
Mean anomaly
357.0033°
Eccentric anomaly
356.93803°
Mean motion
3.60647 °/min
Orbital period
99.82 mins
BSTAR
0.00027314
Loading maneuver chart data...
Computing Atmospheric mass density...

Documentation

Showing up to 5 results
|